Location: ???????
(60.4260°N, 46.9069°E)
Time: 22:11:47
(UTC+00:00)

ATLAS 5 CENTAUR R/B - Pass Details

Date: 30 March 2020
Orbit: 543 x 1116 km, 63.4° (Epoch: 01 May)

Event Time Altitude Azimuth Distance (km) Brightness Sun altitude
Rises 01:21:11 0° 295° (WNW) 3,079 4.7 -8.1°
Reaches altitude 10° 01:23:22 10° 295° (WNW) 2,237 4.0 -7.8°
Maximum altitude 01:28:32 86° 208° (SSW) 830 2.2 -7.2°
Drops below altitude 10° 01:34:39 10° 120° (ESE) 2,628 5.4 -6.5°
Sets 01:37:23 0° 120° (ESE) 3,657 6.2 -6.2°
